FW3806 Weather Reports


Display with metric or nautical units.
time (UTC)temp
F
wind
direction
speed
MPH
gust
MPH
rain 1hr
in
rain 24hr
in
rain mn
in
humidity
%
barometer
mb
20260831094553 76 302 0.0 2.0 0.00 0.00 0.00 30 1006.0
20260831093055 77 283 0.0 0.0 0.00 0.00 0.00 29 1006.1
20260831091548 78 289 1.0 4.0 0.00 0.00 0.00 28 1005.8
20260831090057 78 297 0.0 2.0 0.00 0.00 0.00 28 1005.7
20260831084556 78 302 3.0 5.0 0.00 0.00 0.00 28 1005.7
20260831083048 78 309 0.0 4.0 0.00 0.00 0.00 28 1005.7
20260831081546 78 297 0.0 3.0 0.00 0.00 0.00 28 1005.8
20260831080045 77 300 1.0 4.0 0.00 0.00 0.00 29 1005.7
20260831074543 77 301 1.0 6.0 0.00 0.00 0.00 27 1005.8
20260831073039 78 337 2.0 4.0 0.00 0.00 0.00 26 1005.8
20260831071536 80 4 0.0 2.0 0.00 0.00 0.00 27 1005.8
20260831070043 80 295 0.0 0.0 0.00 0.00 0.00 27 1005.6
20260831064532 81 295 1.0 2.0 0.00 0.00 0.00 26 1005.6
20260831063032 81 286 0.0 3.0 0.00 0.00 0.00 25 1005.7
20260831061531 81 295 0.0 3.0 0.00 0.00 0.00 23 1005.3
20260831060031 81 299 0.0 4.0 0.00 0.00 0.00 24 1005.3
20260831054530 81 304 0.0 4.0 0.00 0.00 0.00 25 1005.4
20260831053027 81 322 2.0 5.0 0.00 0.00 0.00 24 1005.5
20260831051534 82 326 1.0 3.0 0.00 0.00 0.00 22 1005.5
20260831050023 83 338 0.0 5.0 0.00 0.00 0.00 22 1005.5
20260831044522 84 321 1.0 4.0 0.00 0.00 0.00 22 1005.4
20260831043017 85 4 0.0 0.0 0.00 0.00 0.00 20 1005.5
20260831041517 86 4 0.0 0.0 0.00 0.00 0.00 19 1005.4
20260831040017 89 328 0.0 2.0 0.00 0.00 0.00 19 1005.2
20260831034516 90 198 0.0 8.0 0.00 0.00 0.00 18 1004.9
20260831033029 89 199 2.0 5.0 0.00 0.00 0.00 18 1004.6
20260831031516 89 232 0.0 0.0 0.00 0.00 0.00 17 1004.5
20260831030014 89 232 0.0 0.0 0.00 0.00 0.00 16 1004.4
20260831024514 90 231 0.0 4.0 0.00 0.00 0.00 16 1004.1
20260831023013 90 243 0.0 1.0 0.00 0.00 0.00 17 1004.0
20260831021514 91 226 0.0 4.0 0.00 0.00 0.00 16 1003.9
20260831020015 92 202 0.0 6.0 0.00 0.00 0.00 16 1003.9
20260831014513 93 197 3.0 9.0 0.00 0.00 0.00 16 1003.7
20260831013010 93 171 2.0 6.0 0.00 0.00 0.00 16 1003.9
20260831011510 94 176 1.0 8.0 0.00 0.00 0.00 15 1004.0
20260831010010 94 167 3.0 8.0 0.00 0.00 0.00 15 1004.1
20260831004509 93 154 3.0 10.0 0.00 0.00 0.00 16 1004.1
20260831003009 93 210 3.0 12.0 0.00 0.00 0.00 17 1004.2
20260831001512 93 255 4.0 10.0 0.00 0.00 0.00 16 1004.1
20260831000007 93 160 2.0 9.0 0.00 0.00 0.00 17 1004.2
20260830234518 93 208 2.0 9.0 0.00 0.00 0.00 17 1004.6
20260830233006 93 238 5.0 10.0 0.00 0.00 0.00 16 1004.8
20260830231507 94 217 4.0 12.0 0.00 0.00 0.00 16 1004.7
20260830230004 93 240 5.0 12.0 0.00 0.00 0.00 16 1004.8
20260830224504 93 202 2.0 16.0 0.00 0.00 0.00 17 1004.9
20260830223003 93 231 5.0 9.0 0.00 0.00 0.00 17 1005.2
20260830221503 93 169 7.0 14.0 0.00 0.00 0.00 17 1005.3
20260830220002 93 230 3.0 9.0 0.00 0.00 0.00 17 1005.2
20260830214500 93 256 2.0 9.0 0.00 0.00 0.00 17 1005.4
20260830213100 93 143 7.0 16.0 0.00 0.00 0.00 16 1005.7
20260830213003 93 225 7.0 16.0 0.00 0.00 0.00 16 1005.7
20260830211622 93 132 4.0 12.0 0.00 0.00 0.00 16 1005.9
20260830204559 94 237 5.0 10.0 0.00 0.00 0.00 15 1006.0
20260830203058 94 236 2.0 11.0 0.00 0.00 0.00 16 1006.0
20260830201604 94 136 6.0 17.0 0.00 0.00 0.00 16 1006.0
20260830200058 95 155 7.0 16.0 0.00 0.00 0.00 16 1006.0
20260830194602 96 117 5.0 15.0 0.00 0.00 0.00 16 1006.0
20260830193055 96 134 7.0 17.0 0.00 0.00 0.00 16 1006.2
20260830191600 95 187 9.0 16.0 0.00 0.00 0.00 16 1006.3
20260830184559 96 179 10.0 22.0 0.00 0.00 0.00 16 1006.2
20260830183053 95 111 7.0 14.0 0.00 0.00 0.00 16 1006.4
20260830181553 96 181 7.0 16.0 0.00 0.00 0.00 15 1006.4
20260830180055 96 115 4.0 16.0 0.00 0.00 0.00 15 1006.4
20260830174557 96 172 7.0 17.0 0.00 0.00 0.00 15 1006.5
20260830173109 95 125 9.0 19.0 0.00 0.00 0.00 15 1006.2
20260830171553 95 143 5.0 16.0 0.00 0.00 0.00 16 1006.2
20260830170046 93 98 6.0 14.0 0.00 0.00 0.00 16 1006.2
20260830164542 92 150 6.0 12.0 0.00 0.00 0.00 17 1006.3
20260830163042 92 118 9.0 15.0 0.00 0.00 0.00 17 1006.2
20260830161541 92 104 6.0 14.0 0.00 0.00 0.00 17 1006.2
20260830160040 90 103 9.0 20.0 0.00 0.00 0.00 18 1006.0
20260830154540 90 139 11.0 17.0 0.00 0.00 0.00 19 1005.9
20260830153041 89 73 8.0 16.0 0.00 0.00 0.00 20 1006.1
20260830151638 89 107 6.0 11.0 0.00 0.00 0.00 20 1006.1
20260830150034 88 69 4.0 13.0 0.00 0.00 0.00 20 1005.9
20260830144546 88 98 4.0 8.0 0.00 0.00 0.00 22 1005.9
20260830143033 87 72 4.0 9.0 0.00 0.00 0.00 23 1006.0
20260830141531 86 93 2.0 13.0 0.00 0.00 0.00 23 1005.9
20260830140030 85 82 3.0 9.0 0.00 0.00 0.00 24 1005.7
20260830134529 85 59 1.0 11.0 0.00 0.00 0.00 26 1005.6
20260830133031 86 96 5.0 13.0 0.00 0.00 0.00 25 1005.4
20260830131525 86 63 5.0 11.0 0.00 0.00 0.00 25 1005.2
20260830130022 86 101 2.0 10.0 0.00 0.00 0.00 25 1005.1
20260830124532 85 108 5.0 9.0 0.00 0.00 0.00 26 1004.6
20260830123018 86 171 0.0 8.0 0.00 0.00 0.00 25 1004.5
20260830121514 89 183 4.0 8.0 0.00 0.00 0.00 21 1004.3
20260830120014 89 233 0.0 5.0 0.00 0.00 0.00 20 1003.9
20260830114513 89 195 5.0 12.0 0.00 0.00 0.00 21 1004.2
20260830113016 87 104 3.0 7.0 0.00 0.00 0.00 22 1004.2
20260830111508 88 151 2.0 6.0 0.00 0.00 0.00 21 1004.2
20260830110006 88 125 1.0 6.0 0.00 0.00 0.00 21 1003.9
20260830104504 88 80 0.0 4.0 0.00 0.00 0.00 20 1003.6
20260830103006 89 139 0.0 7.0 0.00 0.00 0.00 20 1003.8
20260830101601 89 290 3.0 7.0 0.00 0.00 0.00 19 1003.8